MOLNIYA 1-91

Last updated on Nov. 15, 2019, 4:21 a.m. UTC

1 25485U 98054A   19317.61550094  .00000190  00000-0  27557-3 0  9990
2 25485  62.7340 314.5539 7198635 286.6424 142.5309  2.36398137155994
UTC
Height (km)
Latitude
Longitude
Inclination
Orbital Period
UTC large
Height (km)
Speed (km/s)
/
Latitude / Longitude
Inclination (degrees)
Orbital Period (minutes)
Azimuth
Elevation
Range (km)
Doppler Factor
iOS Compass Heading
iOS Angle

Next 30 passes for location: Hong Kong

Rise time Rise Azimuth (degrees) Set time Set Azimuth (degrees) Duration Max altitude (degrees)

No matching passes for this satellites